Location: Archemont
(49.1579°N, 1.7598°E)
Time: 12:07:44
(UTC+00:00)

Cosmos 468 Rocket - Pass Details

Date: 03 February 2023
Orbit: 744 x 778 km, 74.0° (Epoch: 25 March)

Event Time Altitude Azimuth Distance (km) Brightness Sun altitude
Rises 17:58:54 0° 337° (NNW) 3,224 7.4 -11.1°
Reaches altitude 10° 18:01:18 10° 340° (NNW) 2,290 6.6 -11.5°
Maximum altitude 18:06:29 74° 65° (ENE) 785 3.9 -12.3°
Drops below altitude 10° 18:11:36 10° 151° (SSE) 2,258 6.2 -13.1°
Sets 18:13:57 0° 153° (SSE) 3,175 7.0 -13.5°
